Weather reports worldwide

Advertisment
Carlisle, United Kingdom (3220): temperature & dewpoint: 14.07.2018 23:00:00 - 20.07.2018 23:00:00 (BST)Carlisle, United Kingdom (3220): temperature -100cm: 14.07.2018 23:00:00 - 20.07.2018 23:00:00 (BST)Carlisle, United Kingdom (3220): reduced air pressure: 14.07.2018 23:00:00 - 20.07.2018 23:00:00 (BST)Carlisle, United Kingdom (3220): visibility: 14.07.2018 23:00:00 - 20.07.2018 23:00:00 (BST)Carlisle, United Kingdom (3220): precipitation: 14.07.2018 23:00:00 - 20.07.2018 23:00:00 (BST)
Date & Time tt [°C] td [°C] tt -100cm [°C] ppp [hPa] vv [km] rr [mm]
20.07.2018 23:00:00 15,1 13,4 - 1013,4 50 0,0
20.07.2018 22:00:00 15,3 13,6 - 1013,2 50 0,0
20.07.2018 21:00:00 15,9 13,9 - 1013,0 50 0,0
20.07.2018 20:00:00 15,9 14,0 - 1012,9 11 0,0
20.07.2018 19:00:00 16,1 14,0 - 1012,8 50 0,0
20.07.2018 18:00:00 - - - - 50 0,0
20.07.2018 17:00:00 - - - - 50 0,0
20.07.2018 16:00:00 16,7 14,0 - 1013,1 45 0,0
20.07.2018 15:00:00 16,6 12,9 - 1013,1 35 0,0
20.07.2018 14:00:00 16,2 12,8 - 1013,2 50 0,0
20.07.2018 13:00:00 15,6 12,9 - 1013,4 50 0,0
20.07.2018 12:00:00 14,9 13,7 - 1013,7 19 1,0
20.07.2018 11:00:00 14,4 13,6 - 1014,0 15 0,2
20.07.2018 10:00:00 13,8 12,9 17,2 1014,3 3,9 0,6
20.07.2018 09:00:00 15,3 10,8 - 1014,4 5 0,0
20.07.2018 08:00:00 14,1 8,9 - 1014,3 50 0,0
20.07.2018 07:00:00 13,0 8,4 - 1014,3 45 0,0
20.07.2018 06:00:00 12,2 8,1 - 1014,7 50 0,0
20.07.2018 05:00:00 11,4 7,7 - 1015,0 50 0,0
20.07.2018 04:00:00 12,1 7,8 - 1015,6 50 0,0
20.07.2018 03:00:00 12,7 7,9 - 1016,1 45 0,0
20.07.2018 02:00:00 12,1 8,2 - 1016,5 50 0,0
20.07.2018 01:00:00 13,9 9,5 - 1016,8 50 0,0
20.07.2018 00:00:00 14,4 9,5 - 1017,0 50 0,0
19.07.2018 23:00:00 14,8 9,0 - 1017,3 50 0,0
19.07.2018 22:00:00 15,6 8,3 - 1017,4 50 0,0
19.07.2018 21:00:00 16,8 7,4 - 1017,3 50 0,0
19.07.2018 20:00:00 18,9 6,3 - 1017,4 50 0,0
19.07.2018 19:00:00 19,2 6,2 - 1017,6 50 0,0
19.07.2018 18:00:00 20,1 8,7 - 1017,6 50 0,0
19.07.2018 17:00:00 20,9 9,4 - 1017,8 50 0,0
19.07.2018 16:00:00 21,2 9,0 - 1018,1 50 0,0
19.07.2018 15:00:00 21,9 10,0 - 1018,2 50 0,0
19.07.2018 14:00:00 21,2 11,4 - 1018,4 10 0,0
19.07.2018 13:00:00 19,3 12,0 - 1018,8 35 0,0
19.07.2018 12:00:00 20,1 12,5 - 1019,0 45 0,0
19.07.2018 11:00:00 18,7 13,1 - 1019,1 35 0,0
19.07.2018 10:00:00 18,2 13,1 17,4 1019,1 35 0,0
19.07.2018 09:00:00 16,2 13,7 - 1019,5 22 0,0
19.07.2018 08:00:00 13,6 13,3 - 1019,5 5 0,0
19.07.2018 07:00:00 13,0 12,6 - 1019,5 0,1 0,0
19.07.2018 06:00:00 13,4 13,0 - 1019,4 0,2 0,0
19.07.2018 05:00:00 13,3 12,8 - 1019,5 2,6 0,0
19.07.2018 04:00:00 13,4 12,4 - 1019,7 9 0,0
19.07.2018 03:00:00 13,8 12,9 - 1019,4 16 0,0
19.07.2018 02:00:00 14,1 13,1 - 1019,3 14 0,0
19.07.2018 01:00:00 14,5 13,1 - 1019,3 18 0,0
19.07.2018 00:00:00 15,2 13,5 - 1019,2 30 0,0
18.07.2018 23:00:00 15,7 13,3 - 1019,0 30 0,0
18.07.2018 22:00:00 16,9 13,9 - 1018,8 45 0,0
18.07.2018 21:00:00 17,7 14,0 - 1018,5 50 0,0
18.07.2018 20:00:00 18,1 14,1 - 1018,4 45 0,0
18.07.2018 19:00:00 18,1 14,0 - 1018,3 50 0,0
18.07.2018 18:00:00 17,4 13,8 - 1018,3 40 0,0
18.07.2018 17:00:00 18,0 13,3 - 1018,3 45 0,0
18.07.2018 16:00:00 18,5 13,0 - 1018,0 50 0,0
18.07.2018 15:00:00 18,8 13,8 - 1017,9 50 0,0
18.07.2018 14:00:00 17,4 15,0 - 1018,0 40 0,6
18.07.2018 13:00:00 18,3 13,4 - 1017,7 50 0,0
18.07.2018 12:00:00 18,4 12,2 - 1017,4 50 0,0
18.07.2018 11:00:00 18,6 11,4 - 1017,2 50 0,0
18.07.2018 10:00:00 18,3 11,5 17,5 1017,3 50 0,0
18.07.2018 09:00:00 16,1 10,5 - 1017,2 50 0,0
18.07.2018 08:00:00 14,8 10,1 - 1017,1 50 0,0
18.07.2018 07:00:00 12,4 8,9 - 1016,9 45 0,0
18.07.2018 06:00:00 10,4 8,5 - 1016,5 35 0,0
18.07.2018 05:00:00 10,3 8,0 - 1016,3 35 0,0
18.07.2018 04:00:00 11,4 8,3 - 1016,3 35 0,0
18.07.2018 03:00:00 11,7 8,5 - 1016,3 35 0,0
18.07.2018 02:00:00 12,0 8,4 - 1016,2 35 0,0
18.07.2018 01:00:00 11,6 8,7 - 1016,2 40 0,0
18.07.2018 00:00:00 12,4 9,4 - 1016,2 40 0,0
17.07.2018 23:00:00 13,0 10,3 - 1015,9 35 0,0
17.07.2018 22:00:00 14,0 10,2 - 1015,7 40 0,0
17.07.2018 21:00:00 15,4 10,2 - 1015,1 50 0,0
17.07.2018 20:00:00 17,0 9,0 - 1014,8 50 0,0
17.07.2018 19:00:00 18,0 7,8 - 1014,4 50 0,0
17.07.2018 18:00:00 18,2 9,1 - 1014,3 50 0,0
17.07.2018 17:00:00 18,8 8,6 - 1014,1 50 0,0
17.07.2018 16:00:00 19,0 9,6 - 1014,0 50 0,0
17.07.2018 15:00:00 19,3 9,3 - 1013,7 50 0,0
17.07.2018 14:00:00 18,4 10,9 - 1013,8 50 0,0
17.07.2018 13:00:00 16,9 11,7 - 1014,0 50 0,0
17.07.2018 12:00:00 15,8 12,2 - 1014,1 50 0,0
17.07.2018 11:00:00 15,5 12,6 - 1013,8 50 0,0
17.07.2018 10:00:00 14,9 13,1 17,7 1013,6 29 0,0
17.07.2018 09:00:00 14,3 13,2 - 1013,3 21 0,2
17.07.2018 08:00:00 13,4 12,5 - 1013,1 14 0,2
17.07.2018 07:00:00 12,7 11,6 - 1013,0 9 0,4
17.07.2018 06:00:00 12,7 11,4 - 1012,7 26 0,0
17.07.2018 05:00:00 12,7 11,7 - 1012,6 23 0,0
17.07.2018 04:00:00 12,3 11,6 - 1012,8 30 0,0
17.07.2018 03:00:00 12,2 11,2 - 1013,0 26 0,0
17.07.2018 02:00:00 13,0 11,5 - 1013,0 35 0,0
17.07.2018 01:00:00 13,8 12,7 - 1013,5 40 0,0
17.07.2018 00:00:00 13,6 12,9 - 1013,6 30 0,0
16.07.2018 23:00:00 13,4 12,6 - 1013,7 30 0,0
16.07.2018 22:00:00 13,6 12,4 - 1013,3 8 0,2
16.07.2018 21:00:00 14,0 12,4 - 1013,2 12 0,2
16.07.2018 20:00:00 13,9 12,4 - 1013,0 7 3,0
16.07.2018 19:00:00 14,5 11,5 - 1012,8 4,5 0,8
16.07.2018 18:00:00 17,1 9,7 - 1012,5 35 0,0
16.07.2018 17:00:00 18,1 8,2 - 1012,6 50 0,0
16.07.2018 16:00:00 20,6 9,4 - 1012,3 50 0,0
16.07.2018 15:00:00 20,1 11,4 - 1012,7 50 0,0
16.07.2018 14:00:00 19,1 11,8 - 1013,0 50 0,0
16.07.2018 13:00:00 18,0 11,6 - 1013,2 50 0,0
16.07.2018 12:00:00 17,6 12,0 - 1013,2 50 0,0
16.07.2018 11:00:00 16,8 12,9 - 1012,9 50 0,0
16.07.2018 10:00:00 16,6 13,3 17,5 1012,7 50 0,0
16.07.2018 09:00:00 17,1 14,9 - 1012,3 50 0,0
16.07.2018 08:00:00 17,2 16,1 - 1012,0 35 0,0
16.07.2018 07:00:00 16,7 16,0 - 1011,9 28 0,2
16.07.2018 06:00:00 16,6 16,0 - 1011,9 24 0,6
16.07.2018 05:00:00 16,5 15,8 - 1012,1 12 1,2
16.07.2018 04:00:00 16,4 15,7 - 1012,3 17 0,4
16.07.2018 03:00:00 16,3 15,6 - 1012,4 24 0,2
16.07.2018 02:00:00 16,5 15,5 - 1012,8 4,0 0,2
16.07.2018 01:00:00 16,9 15,5 - 1013,0 50 0,0
16.07.2018 00:00:00 17,3 14,8 - 1013,2 18 0,0
15.07.2018 23:00:00 17,8 14,7 - 1013,3 45 0,0
15.07.2018 22:00:00 18,4 14,4 - 1013,4 50 0,0
15.07.2018 21:00:00 18,8 14,1 - 1013,4 50 0,0
15.07.2018 20:00:00 20,0 13,1 - 1013,3 50 0,0
15.07.2018 19:00:00 21,4 13,7 - 1013,2 50 0,0
15.07.2018 18:00:00 22,1 13,1 - 1013,4 50 0,0
15.07.2018 17:00:00 22,3 13,6 - 1013,7 50 0,0
15.07.2018 16:00:00 21,9 13,2 - 1014,0 50 0,0
15.07.2018 15:00:00 22,1 14,4 - 1014,0 50 0,0
15.07.2018 14:00:00 23,1 13,8 - 1014,0 50 0,0
15.07.2018 13:00:00 23,5 12,7 - 1014,1 50 0,0
15.07.2018 12:00:00 22,7 12,3 - 1014,1 50 0,0
15.07.2018 11:00:00 22,8 12,1 - 1014,2 50 0,0
15.07.2018 10:00:00 20,9 12,6 17,5 1014,6 50 0,0
15.07.2018 09:00:00 20,7 13,6 - 1014,7 50 0,0
15.07.2018 08:00:00 19,2 14,4 - 1014,9 50 0,0
15.07.2018 07:00:00 15,4 12,7 - 1015,0 29 0,0
15.07.2018 06:00:00 14,8 12,8 - 1014,9 30 0,0
15.07.2018 05:00:00 12,8 12,2 - 1015,2 24 0,0
15.07.2018 04:00:00 12,1 10,9 - 1015,6 20 0,0
15.07.2018 03:00:00 13,1 11,9 - 1015,7 25 0,0
15.07.2018 02:00:00 13,4 12,6 - 1016,0 11 0,0
15.07.2018 01:00:00 13,8 12,3 - 1016,4 15 0,0
15.07.2018 00:00:00 15,2 13,1 - 1016,7 22 0,0
14.07.2018 23:00:00 15,9 13,9 - 1016,9 23 0,0

tt = temperature
td = dewpoint
tt -100cm = temperature -100cm
ppp = reduced air pressure
vv = visibility
rr = precipitation

Next stations